,,,PA_Meas_PMT16A,,PR_Meas_QMR101_102,,RH_Meas_QMH101,,SR_Meas_QMS101,,TA_Meas_QMH101,,GenWind,,GenWind,
date,time,status,PA,status,PR,status,RH,status,SR,status,TA,status,DirAvg,status,SpdAvg,
2011-05-14, 00:00:04,VALID,1004.03,VALID,0,INVALID,163.586,VALID,0,VALID,26.157,VALID,340,VALID,0.563672,
2011-05-14, 00:01:04,VALID,1004,VALID,0,INVALID,163.601,VALID,0,VALID,26.157,VALID,340,VALID,1.08359,
2011-05-14, 00:02:04,VALID,1003.99,VALID,0,INVALID,163.563,VALID,0,VALID,26.1765,VALID,356,VALID,0.626562,
2011-05-14, 00:03:04,VALID,1003.96,VALID,0,INVALID,163.601,VALID,0,VALID,26.1765,VALID,12,VALID,0.41875,
2011-05-14, 00:04:04,VALID,1003.92,VALID,0,INVALID,163.601,VALID,0,VALID,26.1959,VALID,360,VALID,0.794531,
2011-05-14, 00:05:04,VALID,1003.89,VALID,0,INVALID,163.586,VALID,0,VALID,26.1959,VALID,42,VALID,0.5875,
2011-05-14, 00:06:04,VALID,1003.88,VALID,0,INVALID,163.594,VALID,0,VALID,26.2154,VALID,1,VALID,0.465234,
2011-05-14, 00:07:04,VALID,1003.87,VALID,0,INVALID,163.586,VALID,0,VALID,26.2154,VALID,33,VALID,0.708594,
2011-05-14, 00:08:04,VALID,1003.86,VALID,0,INVALID,163.571,VALID,0,VALID,26.194,VALID,3,VALID,0.630859,
2011-05-14, 00:09:04,VALID,1003.81,VALID,0,INVALID,163.571,VALID,0,VALID,26.2349,VALID,356,VALID,0.678125,
2011-05-14, 00:10:04,VALID,1003.77,VALID,0,INVALID,163.601,VALID,0,VALID,26.2349,VALID,322,VALID,0.3875,
2011-05-14, 00:11:04,VALID,1003.76,VALID,0,INVALID,163.601,VALID,0,VALID,26.2349,VALID,337,VALID,0.133984,
2011-05-14, 00:12:04,VALID,1003.73,VALID,0,INVALID,163.578,VALID,0,VALID,26.2349,VALID,339,VALID,0.460547,
2011-05-14, 00:13:04,VALID,1003.7,VALID,0,INVALID,163.601,VALID,0,VALID,26.2154,VALID,343,VALID,0.426172,
2011-05-14, 00:14:04,VALID,1003.68,VALID,0,INVALID,163.609,VALID,0,VALID,26.1959,VALID,340,VALID,0.701563,
2011-05-14, 00:15:04,VALID,1003.67,VALID,0,INVALID,163.571,VALID,0,VALID,26.155,VALID,347,VALID,0.387109,
2011-05-14, 00:16:04,VALID,1003.67,VALID,0,INVALID,163.601,VALID,0,VALID,26.1355,VALID,347,VALID,0.373828,
2011-05-14, 00:17:04,VALID,1003.66,VALID,0,INVALID,163.586,VALID,0,VALID,26.118,VALID,330,VALID,0.312891,
2011-05-14, 00:18:04,VALID,1003.65,VALID,0,INVALID,163.578,VALID,0.100563,VALID,26.0985,VALID,351,VALID,0.434766,
2011-05-14, 00:19:04,VALID,1003.66,VALID,0,INVALID,163.594,VALID,0,VALID,26.0576,VALID,350,VALID,0.446875,
2011-05-14, 00:20:04,VALID,1003.63,VALID,0,INVALID,163.578,VALID,0,VALID,26.0596,VALID,350,VALID,0.0128906,
2011-05-14, 00:21:04,VALID,1003.62,VALID,0,INVALID,163.571,VALID,0,VALID,26.0401,VALID,350,VALID,0.0195313,
2011-05-14, 00:22:04,VALID,1003.6,VALID,0,INVALID,163.601,VALID,0,VALID,25.9992,VALID,350,VALID,0.0375,
2011-05-14, 00:23:04,VALID,1003.58,VALID,0,INVALID,163.578,VALID,0,VALID,26.0012,VALID,350,VALID,0,
2011-05-14, 00:24:04,VALID,1003.56,VALID,0,INVALID,163.578,VALID,0,VALID,25.9817,VALID,348,VALID,0.36875,
2011-05-14, 00:25:04,VALID,1003.5,VALID,0,INVALID,163.617,VALID,0,VALID,25.9622,VALID,359,VALID,0.920313,
2011-05-14, 00:26:04,VALID,1003.44,VALID,0,INVALID,163.624,VALID,0,VALID,25.9213,VALID,348,VALID,0.675781,
2011-05-14, 00:27:04,VALID,1003.42,VALID,0,INVALID,163.609,VALID,0,VALID,25.9018,VALID,13,VALID,0.730078,
2011-05-14, 00:28:04,VALID,1003.37,VALID,0,INVALID,163.609,VALID,0,VALID,25.8843,VALID,9,VALID,0.38125,
2011-05-14, 00:29:04,VALID,1003.33,VALID,0,INVALID,163.609,VALID,0,VALID,25.8453,VALID,9,VALID,0.345313,
2011-05-14, 00:30:04,VALID,1003.3,VALID,0,INVALID,163.601,VALID,0,VALID,25.785,VALID,9,VALID,0.350391,
2011-05-14, 00:31:04,VALID,1003.25,VALID,0,INVALID,163.624,VALID,0,VALID,25.7674,VALID,9,VALID,0.35625,
2011-05-14, 00:32:04,VALID,1003.25,VALID,0,INVALID,163.624,VALID,0,VALID,25.709,VALID,9,VALID,0.335938,
2011-05-14, 00:33:04,VALID,1003.26,VALID,0,INVALID,163.647,VALID,0,VALID,25.6486,VALID,9,VALID,0.417188,
2011-05-14, 00:34:04,VALID,1003.22,VALID,0,INVALID,163.639,VALID,0,VALID,25.6097,VALID,2,VALID,0.556641,
2011-05-14, 00:35:04,VALID,1003.22,VALID,0,INVALID,163.647,VALID,0,VALID,25.5707,VALID,357,VALID,0.966406,
2011-05-14, 00:36:04,VALID,1003.24,VALID,0,INVALID,163.647,VALID,0,VALID,25.5707,VALID,355,VALID,0.585156,
2011-05-14, 00:37:04,VALID,1003.25,VALID,0,INVALID,163.624,VALID,0,VALID,25.5727,VALID,352,VALID,0.452344,
2011-05-14, 00:38:04,VALID,1003.23,VALID,0,INVALID,163.617,VALID,0,VALID,25.5513,VALID,351,VALID,0.485156,
2011-05-14, 00:39:04,VALID,1003.21,VALID,0,INVALID,163.655,VALID,0,VALID,25.5532,VALID,351,VALID,0.580078,
2011-05-14, 00:40:04,VALID,1003.18,VALID,0,INVALID,163.639,VALID,0,VALID,25.5727,VALID,354,VALID,1.0043,
2011-05-14, 00:41:04,VALID,1003.21,VALID,0,INVALID,163.624,VALID,0,VALID,25.5513,VALID,357,VALID,0.60625,
2011-05-14, 00:42:04,VALID,1003.15,VALID,0,INVALID,163.624,VALID,0.100563,VALID,25.5727,VALID,332,VALID,0.494141,
2011-05-14, 00:43:04,VALID,1003.17,VALID,0,INVALID,163.632,VALID,0,VALID,25.5513,VALID,346,VALID,0.633594,
2011-05-14, 00:44:04,VALID,1003.14,VALID,0,INVALID,163.632,VALID,0,VALID,25.5298,VALID,346,VALID,0.667969,
2011-05-14, 00:45:04,VALID,1003.14,VALID,0,INVALID,163.647,VALID,0,VALID,25.5532,VALID,10,VALID,0.71875,
2011-05-14, 00:46:04,VALID,1003.18,VALID,0,INVALID,163.662,VALID,0,VALID,25.5513,VALID,355,VALID,0.909375,
2011-05-14, 00:47:04,VALID,1003.17,VALID,0,INVALID,163.624,VALID,0,VALID,25.5318,VALID,351,VALID,1.1168,
2011-05-14, 00:48:04,VALID,1003.22,VALID,0,INVALID,163.639,VALID,0,VALID,25.5298,VALID,358,VALID,1.09258,
2011-05-14, 00:49:04,VALID,1003.21,VALID,0,INVALID,163.632,VALID,0,VALID,25.5707,VALID,336,VALID,1.13711,
2011-05-14, 00:50:04,VALID,1003.22,VALID,0,INVALID,163.639,VALID,0,VALID,25.6116,VALID,350,VALID,0.819141,
2011-05-14, 00:51:04,VALID,1003.2,VALID,0,INVALID,163.624,VALID,0.100563,VALID,25.6292,VALID,346,VALID,1.28984,
2011-05-14, 00:52:04,VALID,1003.16,VALID,0,INVALID,163.617,VALID,0,VALID,25.6486,VALID,350,VALID,0.480469,
2011-05-14, 00:53:04,VALID,1003.15,VALID,0,INVALID,163.639,VALID,0.100563,VALID,25.6895,VALID,351,VALID,0.874219,
2011-05-14, 00:54:04,VALID,1003.1,VALID,0,INVALID,163.639,VALID,0,VALID,25.7071,VALID,355,VALID,0.876953,
2011-05-14, 00:55:04,VALID,1003.09,VALID,0,INVALID,163.578,VALID,0,VALID,25.7285,VALID,12,VALID,0.376563,
2011-05-14, 00:56:04,VALID,1003.07,VALID,0,INVALID,163.617,VALID,0,VALID,25.7674,VALID,347,VALID,1.18555,
2011-05-14, 00:57:04,VALID,1003.05,VALID,0,INVALID,163.617,VALID,0,VALID,25.7655,VALID,349,VALID,1.52891,
2011-05-14, 00:58:04,VALID,1003.07,VALID,0,INVALID,163.624,VALID,0,VALID,25.8044,VALID,346,VALID,1.14688,
2011-05-14, 00:59:04,VALID,1003.07,VALID,0,INVALID,163.624,VALID,0,VALID,25.8239,VALID,4,VALID,0.813672,
2011-05-14, 01:00:04,VALID,1003.07,VALID,0,INVALID,163.624,VALID,0,VALID,25.8453,VALID,360,VALID,0.638281,
2011-05-14, 01:01:04,VALID,1003.06,VALID,0,INVALID,163.586,VALID,0,VALID,25.8239,VALID,340,VALID,0.883203,
2011-05-14, 01:02:04,VALID,1003.06,VALID,0,INVALID,163.609,VALID,0,VALID,25.8239,VALID,339,VALID,0.749609,
2011-05-14, 01:03:04,VALID,1003.06,VALID,0,INVALID,163.617,VALID,0,VALID,25.8044,VALID,352,VALID,1.23438,
2011-05-14, 01:04:04,VALID,1003.06,VALID,0,INVALID,163.632,VALID,0,VALID,25.8453,VALID,349,VALID,0.995313,
2011-05-14, 01:05:04,VALID,1003.05,VALID,0,INVALID,163.594,VALID,0,VALID,25.8044,VALID,346,VALID,0.714453,
2011-05-14, 01:06:04,VALID,1003.05,VALID,0,INVALID,163.624,VALID,0.100563,VALID,25.8044,VALID,309,VALID,0.142578,
2011-05-14, 01:07:04,VALID,1003,VALID,0,INVALID,163.624,VALID,0,VALID,25.8064,VALID,310,VALID,0.257813,
2011-05-14, 01:08:04,VALID,1003,VALID,0,INVALID,163.578,VALID,0,VALID,25.7869,VALID,324,VALID,0.417188,
2011-05-14, 01:09:04,VALID,1002.96,VALID,0,INVALID,163.609,VALID,0,VALID,25.746,VALID,285,VALID,0.478906,
2011-05-14, 01:10:04,VALID,1002.96,VALID,0,INVALID,163.601,VALID,0,VALID,25.7265,VALID,340,VALID,0.417188,
2011-05-14, 01:11:04,VALID,1002.97,VALID,0,INVALID,163.617,VALID,0,VALID,25.748,VALID,344,VALID,0.764063,
2011-05-14, 01:12:04,VALID,1002.96,VALID,0,INVALID,163.617,VALID,0,VALID,25.6856,VALID,360,VALID,0.839063,
2011-05-14, 01:13:04,VALID,1002.94,VALID,0,INVALID,163.601,VALID,0,VALID,25.709,VALID,349,VALID,0.824609,
2011-05-14, 01:14:04,VALID,1002.96,VALID,0,INVALID,163.632,VALID,0,VALID,25.7071,VALID,354,VALID,0.489062,
2011-05-14, 01:15:04,VALID,1002.93,VALID,0,INVALID,163.617,VALID,0,VALID,25.7265,VALID,358,VALID,0.772656,
2011-05-14, 01:16:04,VALID,1002.93,VALID,0,INVALID,163.601,VALID,0,VALID,25.7071,VALID,348,VALID,0.781641,
2011-05-14, 01:17:04,VALID,1002.92,VALID,0,INVALID,163.609,VALID,0,VALID,25.7285,VALID,350,VALID,0.684375,
2011-05-14, 01:18:04,VALID,1002.92,VALID,0,INVALID,163.617,VALID,0,VALID,25.7071,VALID,338,VALID,0.478516,
2011-05-14, 01:19:04,VALID,1002.9,VALID,0,INVALID,163.624,VALID,0,VALID,25.7071,VALID,3,VALID,0.874609,
2011-05-14, 01:20:04,VALID,1002.9,VALID,0,INVALID,163.632,VALID,0,VALID,25.7265,VALID,346,VALID,0.715234,
2011-05-14, 01:21:04,VALID,1002.88,VALID,0,INVALID,163.639,VALID,0,VALID,25.7071,VALID,332,VALID,0.241016,
2011-05-14, 01:22:04,VALID,1002.89,VALID,0,INVALID,163.617,VALID,0,VALID,25.748,VALID,344,VALID,0.861328,
2011-05-14, 01:23:04,VALID,1002.91,VALID,0,INVALID,163.601,VALID,0,VALID,25.7071,VALID,348,VALID,0.582812,
2011-05-14, 01:24:04,VALID,1002.95,VALID,0,INVALID,163.617,VALID,0,VALID,25.6876,VALID,358,VALID,0.693359,
2011-05-14, 01:25:04,VALID,1002.94,VALID,0,INVALID,163.647,VALID,0,VALID,25.7071,VALID,359,VALID,0.494141,
2011-05-14, 01:26:04,VALID,1002.96,VALID,0,INVALID,163.609,VALID,0,VALID,25.709,VALID,351,VALID,0.782812,
2011-05-14, 01:27:04,VALID,1002.95,VALID,0,INVALID,163.632,VALID,0,VALID,25.6681,VALID,338,VALID,0.6,
2011-05-14, 01:28:04,VALID,1002.93,VALID,0,INVALID,163.639,VALID,0,VALID,25.6272,VALID,340,VALID,0.51875,
2011-05-14, 01:29:04,VALID,1002.92,VALID,0,INVALID,163.601,VALID,0,VALID,25.6486,VALID,344,VALID,0.680078,
2011-05-14, 01:30:04,VALID,1002.91,VALID,0,INVALID,163.624,VALID,0,VALID,25.67,VALID,347,VALID,0.517969,
2011-05-14, 01:31:04,VALID,1002.92,VALID,0,INVALID,163.617,VALID,0,VALID,25.6486,VALID,343,VALID,0.707812,
2011-05-14, 01:32:04,VALID,1002.92,VALID,0,INVALID,163.624,VALID,0,VALID,25.67,VALID,5,VALID,0.335938,
2011-05-14, 01:33:04,VALID,1002.9,VALID,0,INVALID,163.617,VALID,0.100563,VALID,25.6486,VALID,5,VALID,0.0785156,
2011-05-14, 01:34:04,VALID,1002.86,VALID,0,INVALID,163.624,VALID,0,VALID,25.67,VALID,5,VALID,0.445313,
2011-05-14, 01:35:04,VALID,1002.86,VALID,0,INVALID,163.609,VALID,0,VALID,25.6292,VALID,2,VALID,0.833203,
2011-05-14, 01:36:04,VALID,1002.87,VALID,0,INVALID,163.632,VALID,0,VALID,25.6097,VALID,1,VALID,0.692187,
2011-05-14, 01:37:04,VALID,1002.88,VALID,0,INVALID,163.624,VALID,0,VALID,25.5902,VALID,360,VALID,0.306641,
2011-05-14, 01:38:04,VALID,1002.86,VALID,0,INVALID,163.639,VALID,0,VALID,25.5513,VALID,351,VALID,0.957031,
2011-05-14, 01:39:04,VALID,1002.86,VALID,0,INVALID,163.632,VALID,0,VALID,25.5707,VALID,336,VALID,0.489453,
2011-05-14, 01:40:04,VALID,1002.84,VALID,0,INVALID,163.609,VALID,0,VALID,25.5921,VALID,356,VALID,0.553906,
2011-05-14, 01:41:04,VALID,1002.81,VALID,0,INVALID,163.647,VALID,0,VALID,25.5727,VALID,341,VALID,0.336328,
2011-05-14, 01:42:04,VALID,1002.77,VALID,0,INVALID,163.624,VALID,0,VALID,25.5707,VALID,360,VALID,0.391406,
2011-05-14, 01:43:04,VALID,1002.78,VALID,0,INVALID,163.632,VALID,0,VALID,25.5707,VALID,342,VALID,0.613672,
2011-05-14, 01:44:04,VALID,1002.77,VALID,0,INVALID,163.632,VALID,0,VALID,25.5902,VALID,353,VALID,0.270312,
2011-05-14, 01:45:04,VALID,1002.77,VALID,0,INVALID,163.609,VALID,0,VALID,25.6097,VALID,352,VALID,0.00234375,
2011-05-14, 01:46:04,VALID,1002.73,VALID,0,INVALID,163.617,VALID,0,VALID,25.5902,VALID,352,VALID,0.0527344,
2011-05-14, 01:47:04,VALID,1002.73,VALID,0,INVALID,163.632,VALID,0,VALID,25.5921,VALID,352,VALID,0.143359,
2011-05-14, 01:48:04,VALID,1002.69,VALID,0,INVALID,163.624,VALID,0,VALID,25.5727,VALID,352,VALID,0,
2011-05-14, 01:49:04,VALID,1002.68,VALID,0,INVALID,163.67,VALID,0,VALID,25.5318,VALID,352,VALID,0.0628906,
2011-05-14, 01:50:04,VALID,1002.65,VALID,0,INVALID,163.624,VALID,0,VALID,25.5104,VALID,352,VALID,0.132031,
2011-05-14, 01:51:04,VALID,1002.63,VALID,0,INVALID,163.639,VALID,0,VALID,25.5123,VALID,352,VALID,0.211719,
2011-05-14, 01:52:04,VALID,1002.65,VALID,0,INVALID,163.639,VALID,0,VALID,25.5142,VALID,352,VALID,0.233203,
2011-05-14, 01:53:04,VALID,1002.61,VALID,0,INVALID,163.662,VALID,0,VALID,25.4948,VALID,349,VALID,0.46875,
2011-05-14, 01:54:04,VALID,1002.59,VALID,0,INVALID,163.624,VALID,0.100563,VALID,25.4734,VALID,8,VALID,0.718359,
2011-05-14, 01:55:04,VALID,1002.57,VALID,0,INVALID,163.632,VALID,0,VALID,25.4344,VALID,6,VALID,0.398047,
2011-05-14, 01:56:04,VALID,1002.54,VALID,0,INVALID,163.647,VALID,0,VALID,25.4149,VALID,360,VALID,0.475781,
2011-05-14, 01:57:04,VALID,1002.57,VALID,0,INVALID,163.639,VALID,0,VALID,25.3955,VALID,339,VALID,0.711328,
2011-05-14, 01:58:04,VALID,1002.56,VALID,0,INVALID,163.632,VALID,0,VALID,25.3955,VALID,349,VALID,0.631641,
2011-05-14, 01:59:04,VALID,1002.52,VALID,0,INVALID,163.639,VALID,0,VALID,25.4363,VALID,353,VALID,0.576563,
2011-05-14, 02:00:04,VALID,1002.53,VALID,0,INVALID,163.632,VALID,0,VALID,25.4558,VALID,358,VALID,0.646875,
2011-05-14, 02:01:04,VALID,1002.48,VALID,0,INVALID,163.647,VALID,0.100563,VALID,25.4344,VALID,41,VALID,0.729297,
2011-05-14, 02:02:04,VALID,1002.5,VALID,0,INVALID,163.624,VALID,0,VALID,25.3955,VALID,41,VALID,0.269141,
2011-05-14, 02:03:04,VALID,1002.49,VALID,0,INVALID,163.647,VALID,0,VALID,25.337,VALID,41,VALID,0.195313,
2011-05-14, 02:04:04,VALID,1002.46,VALID,0,INVALID,163.655,VALID,0,VALID,25.2981,VALID,41,VALID,0.290234,
2011-05-14, 02:05:04,VALID,1002.44,VALID,0,INVALID,163.632,VALID,0,VALID,25.2592,VALID,41,VALID,0.389453,
2011-05-14, 02:06:04,VALID,1002.43,VALID,0,INVALID,163.67,VALID,0,VALID,25.2007,VALID,41,VALID,0.552344,
2011-05-14, 02:07:04,VALID,1002.45,VALID,0,INVALID,163.67,VALID,0,VALID,25.2221,VALID,38,VALID,0.724609,
2011-05-14, 02:08:04,VALID,1002.45,VALID,0,INVALID,163.67,VALID,0,VALID,25.2007,VALID,32,VALID,0.675,
2011-05-14, 02:09:04,VALID,1002.45,VALID,0,INVALID,163.639,VALID,0,VALID,25.2027,VALID,32,VALID,0.616406,
2011-05-14, 02:10:04,VALID,1002.45,VALID,0,INVALID,163.655,VALID,0,VALID,25.2007,VALID,359,VALID,0.563281,
2011-05-14, 02:11:04,VALID,1002.45,VALID,0,INVALID,163.647,VALID,0,VALID,25.2202,VALID,346,VALID,0.679688,
2011-05-14, 02:12:04,VALID,1002.43,VALID,0,INVALID,163.639,VALID,0,VALID,25.2611,VALID,351,VALID,0.500781,
2011-05-14, 02:13:04,VALID,1002.43,VALID,0,INVALID,163.662,VALID,0,VALID,25.2416,VALID,351,VALID,0.741406,
2011-05-14, 02:14:04,VALID,1002.42,VALID,0,INVALID,163.662,VALID,0.100563,VALID,25.2806,VALID,322,VALID,0.504687,
2011-05-14, 02:15:04,VALID,1002.41,VALID,0,INVALID,163.617,VALID,0,VALID,25.2786,VALID,357,VALID,0.712891,
2011-05-14, 02:16:04,VALID,1002.41,VALID,0,INVALID,163.639,VALID,0.100563,VALID,25.3,VALID,355,VALID,0.886328,
2011-05-14, 02:17:04,VALID,1002.39,VALID,0,INVALID,163.647,VALID,0,VALID,25.2981,VALID,351,VALID,0.764063,
2011-05-14, 02:18:04,VALID,1002.41,VALID,0,INVALID,163.639,VALID,0,VALID,25.337,VALID,358,VALID,0.974219,
2011-05-14, 02:19:04,VALID,1002.4,VALID,0,INVALID,163.662,VALID,0,VALID,25.337,VALID,360,VALID,0.511328,
2011-05-14, 02:20:04,VALID,1002.38,VALID,0,INVALID,163.67,VALID,0,VALID,25.337,VALID,352,VALID,0.449219,
2011-05-14, 02:21:04,VALID,1002.36,VALID,0,INVALID,163.655,VALID,0,VALID,25.337,VALID,352,VALID,0.348047,
2011-05-14, 02:22:04,VALID,1002.38,VALID,0,INVALID,163.639,VALID,0,VALID,25.2981,VALID,352,VALID,0.339844,
2011-05-14, 02:23:04,VALID,1002.36,VALID,0,INVALID,163.655,VALID,0,VALID,25.2592,VALID,352,VALID,0.342578,
2011-05-14, 02:24:04,VALID,1002.39,VALID,0,INVALID,163.662,VALID,0,VALID,25.2397,VALID,352,VALID,0.572656,
2011-05-14, 02:25:04,VALID,1002.39,VALID,0,INVALID,163.701,VALID,0,VALID,25.2202,VALID,352,VALID,0.450391,
2011-05-14, 02:26:04,VALID,1002.43,VALID,0,INVALID,163.67,VALID,0,VALID,25.2027,VALID,352,VALID,0.45625,
2011-05-14, 02:27:04,VALID,1002.43,VALID,0,INVALID,163.685,VALID,0,VALID,25.1423,VALID,352,VALID,0.428906,
2011-05-14, 02:28:04,VALID,1002.42,VALID,0,INVALID,163.639,VALID,0,VALID,25.1442,VALID,352,VALID,0.260938,
2011-05-14, 02:29:04,VALID,1002.44,VALID,0,INVALID,163.655,VALID,0,VALID,25.1442,VALID,357,VALID,0.724219,
2011-05-14, 02:30:04,VALID,1002.44,VALID,0,INVALID,163.678,VALID,0,VALID,25.1248,VALID,4,VALID,0.441016,
2011-05-14, 02:31:04,VALID,1002.44,VALID,0,INVALID,163.655,VALID,0,VALID,25.1423,VALID,5,VALID,0.46875,
2011-05-14, 02:32:04,VALID,1002.43,VALID,0,INVALID,163.655,VALID,0,VALID,25.1618,VALID,5,VALID,0.221094,
2011-05-14, 02:33:04,VALID,1002.44,VALID,0,INVALID,163.647,VALID,0,VALID,25.1423,VALID,5,VALID,0.170312,
2011-05-14, 02:34:04,VALID,1002.42,VALID,0,INVALID,163.639,VALID,0,VALID,25.1637,VALID,5,VALID,0.299609,
2011-05-14, 02:35:04,VALID,1002.43,VALID,0,INVALID,163.662,VALID,0,VALID,25.1637,VALID,5,VALID,0.322266,
2011-05-14, 02:36:04,VALID,1002.42,VALID,0,INVALID,163.655,VALID,0,VALID,25.1229,VALID,5,VALID,0.332422,
2011-05-14, 02:37:04,VALID,1002.45,VALID,0,INVALID,163.639,VALID,0,VALID,25.1229,VALID,5,VALID,0.276172,
2011-05-14, 02:38:04,VALID,1002.51,VALID,0,INVALID,163.647,VALID,0,VALID,25.1637,VALID,5,VALID,0.0898438,
2011-05-14, 02:39:04,VALID,1002.57,VALID,0,INVALID,163.678,VALID,0,VALID,25.1229,VALID,5,VALID,0,
2011-05-14, 02:40:04,VALID,1002.63,VALID,0,INVALID,163.639,VALID,0,VALID,25.1442,VALID,5,VALID,0,
2011-05-14, 02:41:04,VALID,1002.67,VALID,0,INVALID,163.639,VALID,0,VALID,25.1229,VALID,360,VALID,0.185156,
2011-05-14, 02:42:04,VALID,1002.71,VALID,0,INVALID,163.632,VALID,0,VALID,25.1229,VALID,336,VALID,0.109766,
2011-05-14, 02:43:04,VALID,1002.7,VALID,0,INVALID,163.678,VALID,0,VALID,25.1034,VALID,336,VALID,0,
2011-05-14, 02:44:04,VALID,1002.72,VALID,0,INVALID,163.639,VALID,0,VALID,25.1034,VALID,336,VALID,0,
2011-05-14, 02:45:04,VALID,1002.7,VALID,0,INVALID,163.639,VALID,0,VALID,25.0644,VALID,336,VALID,0,
2011-05-14, 02:46:04,VALID,1002.71,VALID,0,INVALID,163.67,VALID,0,VALID,25.045,VALID,336,VALID,0.0359375,
2011-05-14, 02:47:04,VALID,1002.73,VALID,0,INVALID,163.67,VALID,0,VALID,25.0255,VALID,336,VALID,0.0386719,
2011-05-14, 02:48:04,VALID,1002.73,VALID,0,INVALID,163.655,VALID,0,VALID,25.0255,VALID,336,VALID,0.135937,
2011-05-14, 02:49:04,VALID,1002.72,VALID,0,INVALID,163.647,VALID,0.100563,VALID,25.006,VALID,336,VALID,0.0226563,
2011-05-14, 02:50:04,VALID,1002.72,VALID,0,INVALID,163.678,VALID,0,VALID,24.9866,VALID,336,VALID,0.00625,
2011-05-14, 02:51:04,VALID,1002.73,VALID,0,INVALID,163.693,VALID,0,VALID,24.9885,VALID,336,VALID,0.158594,
2011-05-14, 02:52:04,VALID,1002.72,VALID,0,INVALID,163.67,VALID,0,VALID,24.9476,VALID,336,VALID,0.337109,
2011-05-14, 02:53:04,VALID,1002.74,VALID,0,INVALID,163.647,VALID,0.100563,VALID,24.9282,VALID,336,VALID,0.338281,
2011-05-14, 02:54:04,VALID,1002.76,VALID,0,INVALID,163.685,VALID,0,VALID,24.9087,VALID,336,VALID,0.230859,
2011-05-14, 02:55:04,VALID,1002.78,VALID,0,INVALID,163.685,VALID,0,VALID,24.8484,VALID,345,VALID,0.370703,
2011-05-14, 02:56:04,VALID,1002.76,VALID,0,INVALID,163.662,VALID,0,VALID,24.8503,VALID,345,VALID,0.271484,
2011-05-14, 02:57:04,VALID,1002.74,VALID,0,INVALID,163.685,VALID,0,VALID,24.8503,VALID,344,VALID,0.473828,
2011-05-14, 02:58:04,VALID,1002.7,VALID,0,INVALID,163.693,VALID,0,VALID,24.8911,VALID,342,VALID,0.701172,
2011-05-14, 02:59:04,VALID,1002.7,VALID,0,INVALID,163.685,VALID,0.100563,VALID,24.9495,VALID,352,VALID,0.657031,
2011-05-14, 03:00:04,VALID,1002.69,VALID,0,INVALID,163.678,VALID,0,VALID,24.9671,VALID,335,VALID,0.419141,
2011-05-14, 03:01:04,VALID,1002.67,VALID,0,INVALID,163.67,VALID,0,VALID,25.0255,VALID,320,VALID,0.197656,
2011-05-14, 03:02:04,VALID,1002.64,VALID,0,INVALID,163.632,VALID,0,VALID,25.045,VALID,320,VALID,0.0726563,
2011-05-14, 03:03:04,VALID,1002.68,VALID,0,INVALID,163.678,VALID,0,VALID,25.0839,VALID,324,VALID,0.519141,
2011-05-14, 03:04:04,VALID,1002.68,VALID,0,INVALID,163.67,VALID,0,VALID,25.1423,VALID,324,VALID,0.242969,
2011-05-14, 03:05:04,VALID,1002.69,VALID,0,INVALID,163.632,VALID,0,VALID,25.1813,VALID,355,VALID,0.466406,
2011-05-14, 03:06:04,VALID,1002.72,VALID,0,INVALID,163.639,VALID,0,VALID,25.1813,VALID,355,VALID,0.251563,
2011-05-14, 03:07:04,VALID,1002.74,VALID,0,INVALID,163.655,VALID,0,VALID,25.1832,VALID,30,VALID,0.213672,
2011-05-14, 03:08:04,VALID,1002.72,VALID,0,INVALID,163.639,VALID,0.100563,VALID,25.1813,VALID,30,VALID,0.23125,
2011-05-14, 03:09:04,VALID,1002.74,VALID,0,INVALID,163.655,VALID,0,VALID,25.1813,VALID,30,VALID,0.240625,
2011-05-14, 03:10:04,VALID,1002.79,VALID,0,INVALID,163.693,VALID,0.100563,VALID,25.1813,VALID,30,VALID,0.414844,
2011-05-14, 03:11:04,VALID,1002.8,VALID,0,INVALID,163.67,VALID,0.100563,VALID,25.1385,VALID,359,VALID,0.597656,
2011-05-14, 03:12:04,VALID,1002.83,VALID,0,INVALID,163.647,VALID,0,VALID,25.2007,VALID,355,VALID,0.432813,
2011-05-14, 03:13:04,VALID,1002.83,VALID,0,INVALID,163.617,VALID,0,VALID,25.2397,VALID,355,VALID,0.545703,
2011-05-14, 03:14:04,VALID,1002.84,VALID,0,INVALID,163.617,VALID,0,VALID,25.2767,VALID,348,VALID,0.342969,
2011-05-14, 03:15:04,VALID,1002.87,VALID,0,INVALID,163.632,VALID,0,VALID,25.3176,VALID,348,VALID,0.323828,
2011-05-14, 03:16:04,VALID,1002.89,VALID,0,INVALID,163.655,VALID,0.100563,VALID,25.3157,VALID,344,VALID,0.741797,
2011-05-14, 03:17:04,VALID,1002.91,VALID,0,INVALID,163.639,VALID,0,VALID,25.3741,VALID,339,VALID,0.525781,
2011-05-14, 03:18:04,VALID,1002.92,VALID,0,INVALID,163.639,VALID,0,VALID,25.4344,VALID,313,VALID,0.2,
2011-05-14, 03:19:04,VALID,1002.93,VALID,0,INVALID,163.67,VALID,0,VALID,25.4539,VALID,313,VALID,0.307031,
2011-05-14, 03:20:04,VALID,1002.91,VALID,0,INVALID,163.632,VALID,0,VALID,25.452,VALID,318,VALID,0.446875,
2011-05-14, 03:21:04,VALID,1002.92,VALID,0,INVALID,163.632,VALID,0,VALID,25.5337,VALID,333,VALID,0.504687,
2011-05-14, 03:22:04,VALID,1002.93,VALID,0,INVALID,163.617,VALID,0,VALID,25.5707,VALID,343,VALID,0.222266,
2011-05-14, 03:23:04,VALID,1002.92,VALID,0,INVALID,163.632,VALID,0.100563,VALID,25.5902,VALID,337,VALID,0.735547,
2011-05-14, 03:24:04,VALID,1002.94,VALID,0,INVALID,163.647,VALID,0.100563,VALID,25.6292,VALID,344,VALID,0.497266,
2011-05-14, 03:25:04,VALID,1002.96,VALID,0,INVALID,163.601,VALID,0.100563,VALID,25.6292,VALID,344,VALID,0.566016,
2011-05-14, 03:26:04,VALID,1002.95,VALID,0,INVALID,163.617,VALID,0,VALID,25.6681,VALID,347,VALID,0.0996094,
2011-05-14, 03:27:04,VALID,1002.96,VALID,0,INVALID,163.624,VALID,0,VALID,25.6681,VALID,346,VALID,0.501562,
2011-05-14, 03:28:04,VALID,1002.97,VALID,0,INVALID,163.632,VALID,0,VALID,25.6681,VALID,11,VALID,0.569531,
2011-05-14, 03:29:04,VALID,1002.98,VALID,0,INVALID,163.624,VALID,0,VALID,25.6681,VALID,347,VALID,0.769531,
2011-05-14, 03:30:04,VALID,1002.96,VALID,0,INVALID,163.609,VALID,0,VALID,25.6876,VALID,328,VALID,1.03633,
2011-05-14, 03:31:04,VALID,1003.02,VALID,0,INVALID,163.617,VALID,0,VALID,25.748,VALID,8,VALID,0.572266,
2011-05-14, 03:32:04,VALID,1003.04,VALID,0,INVALID,163.617,VALID,0.100563,VALID,25.7265,VALID,338,VALID,0.419922,
2011-05-14, 03:33:04,VALID,1003.07,VALID,0,INVALID,163.632,VALID,0.100563,VALID,25.746,VALID,346,VALID,0.658984,
2011-05-14, 03:34:04,VALID,1003.13,VALID,0,INVALID,163.624,VALID,0,VALID,25.744,VALID,336,VALID,0.479688,
2011-05-14, 03:35:04,VALID,1003.14,VALID,0,INVALID,163.632,VALID,0,VALID,25.7655,VALID,346,VALID,0.108594,
2011-05-14, 03:36:04,VALID,1003.14,VALID,0,INVALID,163.639,VALID,0.100563,VALID,25.7655,VALID,346,VALID,0.0339844,
2011-05-14, 03:37:04,VALID,1003.17,VALID,0,INVALID,163.624,VALID,0,VALID,25.7051,VALID,346,VALID,0,
2011-05-14, 03:38:04,VALID,1003.19,VALID,0,INVALID,163.617,VALID,0,VALID,25.7071,VALID,346,VALID,0,
2011-05-14, 03:39:04,VALID,1003.2,VALID,0,INVALID,163.617,VALID,0.100563,VALID,25.6876,VALID,266,VALID,0.414453,
2011-05-14, 03:40:04,VALID,1003.17,VALID,0,INVALID,163.624,VALID,0.100563,VALID,25.6681,VALID,266,VALID,0.216406,